SMIE-1L

导读

SMIE-1L卫星计划于2025年11月2日发射,目前发射国家尚未确定。这颗卫星目前公开信息较少,推测它可能聚焦新型空间技术验证、地球观测或航天科学探测领域,其发射将为相关航天应用领域积累宝贵技术经验,推动全球航天领域的创新发展,各方正持续推进发射前的准备工作,最终结果待官方披露。

基本信息
目录编号:
66294
目录名称:
SEMI-1L
国际标识:
2025-248B
轨道中心:
EARTH
卫星名称:
SMIE-1L
卫星全名:
SMIE-1L
卫星状态:
在轨 (已飞行307 天)
发射日期:
2025-11-02 UTC
国别 :
土耳其 (TR)
星等 :
--
轨道信息
数据来源 国际轨道数据
星历时间: 2026-09-05T18:07:02+0800
7小时前
查看轨道信息
半长轴: 6878.786km
偏心率: 0.0003107
轨道倾角: 45.406°
近地点辐角 199.040°
升交点赤经 50.668°
平近点角 161.037°
近地点: 498.511km
远地点: 502.787km
周期: 94.630分钟
每日圈数: 15.217214
详细信息
使用方式:
暂无
2D轨道图
3D轨道图
轨道高度分析图
轨道倾角分析图
轨道综合分析图
查看轨道综合分析图
交会数据列表
事件ID 空间交会对象 最接近时刻(TCA) 交会距离 交会风险概率(CRP) 交会风险指数(CRI) 操作
CDM_260906-134905-352606-629425
SEMI-1L (66294)
2026-09-06T
13:49:49+0000
2.039 km
极远距离
1.933795E-6 低风险 0.41
CDM_260831-024806-629406-667825
SEMI-1L (66294)
2026-08-31T
02:48:13+0000
2.455 km
极远距离
1.688924E-6 低风险 0.4
CDM_260905-142806-629406-727023
SEMI-1L (66294)
OBJECT Y (67270)
2026-09-05T
14:28:48+0000
2.336 km
极远距离
1.678459E-6 低风险 0.39
CDM_260903-002705-377706-629421
SEMI-1L (66294)
2026-09-03T
00:27:11+0000
2.673 km
极远距离
1.293052E-6 低风险 0.37